sat.trackr.live / text

‹ back to catalog

STARLINK-33666

NORAD 63592 · 2025-076Z

PAYLOAD ACTIVE UNKNOWN

§ Identity

Operator
Country
US
Launch date
2025-04-14
Launch site
AFETR
Launch vehicle
Mass (kg)
RCS (m²)

Purposes: comms

External: N2YO · Heavens-Above · Gunter

§ Orbital elements

Epoch: 2026-09-20T09:05:30.581952Z

Period
94.27 min
Inclination
43.0040°
Eccentricity
0.0002631
Mean motion
15.27587846 rev/d
Perigee alt
481.2 km
Apogee alt
484.8 km
Semi-major
6,861.2 km
B*
3.0151e-4
RAAN
302.3617°
Arg perigee
290.5484°
Mean anomaly
69.5085°
Rev number
8,160

§ Raw data

STARLINK-336661 63592U 25076Z   26263.37882618  .00008046  00000+0  30151-3 0  99972 63592  43.0040 302.3617 0002631 290.5484  69.5085 15.27587846 81605

JSON: /api/v1/satellites/63592 · /tle

For live sub-satellite position, see the globe view (requires WebGL).

§ Visibility from observer

Set your observer location to see the next 7 days of passes ≥ 10°. The values pass through the URL so the page stays shareable.

No JS? Fill the form by hand. The geolocation button needs JavaScript.